Starlink 32155

operational
NORAD ID: 60274 Int'l Des: 2024-131 Owner: SPXS Country: US Constellation: starlink
LEOCIRCULAR

About Starlink 32155

Description loading...

Live Position

Loading 3D Globe...

Upcoming Passes

Altitude History

Altitude vs Time

uPlot chart will show altitude changes over time

Two-Line Element Set

1 60274U 24131V 25258.10617789 .00000712 00000-0 36163-4 0 9994
2 60274 53.1587 148.1657 0001322 78.0838 282.0311 15.30192084 64734
Epoch: Sep 15, 2025 • Age: 24 hours

Current Status

Altitude 487.0 km
Velocity 7.62 km/s
Sub-Earth Point -34.76°S, 46.39°W
Launch Date Jul 27, 2024
Age 1.1 years
Type internet

Technical Details

Classification Payload
Mass 730.00 kg
Dry Mass 700.00 kg
Total Mass 730.00 kg
Length 0.30 m
Diameter 4.10 m
Span 29.00 m
Shape Box + pan
Manufacturer SPXS
Bus Type Starlink V2M
Phase Status In Orbit
Owner/State SPXS/US

Large Constellations

Loading constellations...